Regional Weather Roundup
Issued by NWS

Home | Current Version | Previous Version | Graphics & Text | Print | Product List | Glossary Off
Versions: 1 2 3 4 5 6 7 8 9 10 11 12 13 14 15 16 17 18 19 20 21 22 23 24 25 26 27 28 29 30 31 32 33 34 35 36 37 38 39 40 41 42 43 44 45 46 47 48 49 50

000
ASUS43 KMKX 010300
RWRWI

WISCONSIN REGIONAL WEATHER ROUNDUP
NATIONAL WEATHER SERVICE MILWAUKEE/SULLIVAN WI
1000 PM CDT FRI JUL 31 2015

NOTE: "FAIR" INDICATES FEW OR NO CLOUDS BELOW 12,000 FEET WITH NO
SIGNIFICANT WEATHER AND/OR OBSTRUCTIONS TO VISIBILITY.

WIZ001-002-006>008-014>016-023>028-010400-
NORTHWEST WISCONSIN

CITY           SKY/WX    TMP DP  RH WIND       PRES   REMARKS
SUPERIOR ARPT  CLEAR     66  52  60 W6        29.92R
ASHLAND        CLEAR     58  57  97 SW6       29.92R
HAYWARD        CLEAR     61  52  72 CALM      29.96R
SIREN          CLEAR     63  55  74 CALM      29.96S
CUMBERLAND     CLEAR     61  52  72 CALM      29.97R
RICE LAKE      CLEAR     61  54  76 CALM      29.98R
CHETEK         CLEAR     65  55  69 SW5       29.97R
LADYSMITH      CLEAR     67  53  62 W3        29.97S
EAU CLAIRE     NOT AVBL
MENOMONIE      CLEAR     66  53  61 SW6       29.98R
NEW RICHMOND   PTCLDY    65  54  65 W5        29.99R
OSCEOLA        CLEAR     66  55  67 W5        30.00R
$$

WIZ003>005-009-010-017-018-010400-
NORTH CENTRAL WISCONSIN

CITY           SKY/WX    TMP DP  RH WIND       PRES   REMARKS
MANITOWISH WTR PTCLDY    56  56 100 CALM      29.94R
ARBOR VITAE    CLEAR     59  57  93 CALM      29.94S
WOODRUFF       CLEAR     59  57  93 CALM      29.94S
RHINELANDER    MOCLDY    57  55  93 W5        29.96R
EAGLE RIVER    PTCLDY    57  55  92 CALM      29.94R
LAND O LAKES   CLEAR     58  53  81 W5        29.94S
PHILLIPS       PTCLDY    58  58 100 CALM      29.95R
TOMAHAWK       CLEAR     55  54  95 CALM      29.96R
MEDFORD        CLEAR     64  53  67 W3        29.96R
MERRILL        NOT AVBL
$$

WIZ029-030-035-036-043>047-010400-
CENTRAL WISCONSIN

CITY           SKY/WX    TMP DP  RH WIND       PRES   REMARKS
WAUSAU         CLEAR     64  55  72 SW5       29.95R
MOSINEE        CLEAR     64  55  72 CALM      29.97R
MARSHFIELD     CLEAR     65  51  60 W6        29.97R
STEVENS POINT  CLEAR     63  53  69 CALM      29.97R
WAUPACA        MOCLDY    70  55  58 CALM      29.96R
WAUTOMA        NOT AVBL
WISC RAPIDS    CLEAR     66  51  58 W6        29.98R
CAMP DOUGLAS   NOT AVBL
$$

WIZ011>013-019>022-031-037>040-048>050-010400-
NORTHEAST WISCONSIN

CITY           SKY/WX    TMP DP  RH WIND       PRES   REMARKS
ANTIGO         PTCLDY    56  54  93 CALM      29.96R
SHAWANO        PTCLDY    66  56  69 W5        29.94R
OCONTO         MOCLDY    67  55  64 W7        29.91R
STURGEON BAY   PTCLDY    70  52  52 W7        29.93R
GREEN BAY      PTCLDY    65  55  70 W8        29.93R
MANITOWOC      NOT AVBL
APPLETON       MOCLDY    66  54  63 VRB5      29.96R
CLINTONVILLE   CLOUDY    66  52  59 NW5       29.94R
OSHKOSH        MOCLDY    71  53  52 NW6       29.95R
$$

WIZ032>034-041-042-053>061-010400-
SOUTHWEST WISCONSIN

CITY           SKY/WX    TMP DP  RH WIND       PRES   REMARKS
LA CROSSE      CLEAR     69  57  65 SE3       29.99R
SPARTA         CLEAR     60  51  73 CALM      29.99R
VIROQUA        CLEAR     65  52  62 W5        30.02R
BOSCOBEL       CLEAR     64  58  80 W3        30.00R
PRAIRIE DU CHI CLEAR     69  55  60 CALM      30.00R
PLATTEVILLE    CLEAR     67  54  62 W7        30.01R
$$

WIZ056-057-062-063-064-067-068-010400-
SOUTH CENTRAL WISCONSIN

CITY           SKY/WX    TMP DP  RH WIND       PRES   REMARKS
REEDSBURG      CLEAR     68  53  58 CALM      29.98R
BARABOO/DELLS  CLEAR     67  48  49 CALM      29.98R
LONE ROCK      NOT AVBL
MINERAL POINT  CLEAR     68  54  60 W3        30.01S
MADISON        CLEAR     70  50  49 W3        29.98R
MIDDLETON      CLEAR     62  55  80 CALM      30.00R
WATERTOWN      CLEAR     66  54  63 W3        29.96R
MONROE         CLEAR     70  54  56 W8        30.00R
JANESVILLE     CLEAR     64  50  59 NW5       29.98R
$$

WIZ051-052-058>065-066-070>072-010400-
SOUTHEAST WISCONSIN

CITY           SKY/WX    TMP DP  RH WIND       PRES   REMARKS
MILWAUKEE      PTCLDY    75  50  41 W8        29.95R
WAUKESHA       CLEAR     68  50  52 W7        29.98R
MILWAUKEE/TIMM CLEAR     70  46  43 W6        29.96R
RACINE         CLEAR     71  50  47 W5        29.97R
BURLINGTON     CLEAR     65  50  58 W5        29.97R
KENOSHA        CLEAR     64  52  64 W6        29.97R
FOND DU LAC    CLEAR     66  53  63 NW6       29.96R
SHEBOYGAN      CLOUDY    71  54  54 NW7       29.94R
WEST BEND      CLEAR     68  50  52 W3        29.95R
JUNEAU         CLEAR     67  53  60 CALM      29.97R
$$

LSZ147-162-010400-
LAKE SUPERIOR

STATION/POSITION TIME  TEMP    WIND        PRES    WAVE
                       AIR SEA DIR/SP/G            HT/PER
                 (UTC) (F)     (DEG/KT/KT) (MB)    (FT/S)
W MID LAKE BUOY  0150   58 53  250/ 10/ 10 1011.0R   1/ 4
DEVILS ISLAND    0200   68     310/  6/  6 1012.0S
PORT WING        0200   67     240/  4/  7 1012.5S
SAXON HARBOR     0200   63                 1012.2R
$$

LMZ867-665-643>646-010400-
LAKE MICHIGAN

STATION/POSITION TIME  TEMP    WIND        PRES    WAVE
                       AIR SEA DIR/SP/G            HT/PER
                 (UTC) (F)     (DEG/KT/KT) (MB)    (FT/S)
CHAMBERS ISLAND  0200   70     300/  3/  6 1011.9R
S GREEN BAY BUOY 0230   69 72  270/ 10/ 12 1014.1R
N MID LAKE BUOY  0150   70 69  300/ 12/ 14 1010.7R   1/ 3
NORTHPORT PIER   0200   72     300/  8/ 13 1011.5R
SISTER BAY       0244   72     320/ 14/ 16   N/A
ALGOMA LAKESHORE 0242          320/  4/  8   N/A
KEWAUNEE LAKESHO 0200   72     300/  6/ 10 1011.9R
SHEBOYGAN LAKESH 0200   75     290/ 10/ 12 1013.0R
PORT WASHINGTON  0200   75     280/  3/  6 1013.9R
ATWATER BUOY     0200   73 69  280/  6/  8 1015.0R
MILWAUKEE LAKESH 0200   77     290/  7/  9   N/A
KENOSHA   LAKESH 0200   76     290/  7/ 11 1013.5R
$$

TC  - TEMPERATURE IN CELSIUS
VSB - VISIBILITY IN STATUTE MILES
WCI - WIND CHILL INDEX
HX  - HEAT INDEX




USA.gov is the U.S. government's official web portal to all federal, state and local government web resources and services.